FENGYUN 3F

Last updated on Sun Apr 12 2026 00:02:27 GMT+0000 (Coordinated Universal Time)

1 57490U 23111A 26101.52516653 .00000038 00000+0 38502-4 0 9998 2 57490 98.6869 172.7652 0000777 95.5921 264.5344 14.19927407139404
UTC large
Height (km)
Speed (km/s)
/
Latitude / Longitude
Inclination (degrees)
Orbital Period (minutes)
Azimuth
Elevation
Range (km)
Doppler Factor

Next 0 passes for location: London (51.5072 / 0.1276)

Sorry there are no passes over London.
FENGYUN 3F